Hourly Weather Kericho

Today, 20 June, Sunday

Time Temperature Precipitation Wind Pressure Humidity
00:00 +12°C° 0 mm 1 mps 599 mmHg 96%
01:00 +12°C° 0 mm 1 mps 599 mmHg 96%
02:00 +12°C° 0 mm 1 mps 599 mmHg 96%
03:00 +12°C° 0 mm 1 mps 599 mmHg 96%
04:00 +11°C° 0 mm 1 mps 599 mmHg 96%
05:00 +11°C° 0 mm 1 mps 599 mmHg 96%
06:00 +13°C° 0 mm 1 mps 600 mmHg 88%
07:00 +15°C° 0 mm 1 mps 601 mmHg 81%
08:00 +17°C° 0 mm 0 mps 601 mmHg 74%
09:00 +20°C° 0 mm 1 mps 602 mmHg 65%
10:00 +22°C° 0 mm 1 mps 602 mmHg 57%
11:00 +24°C° 0 mm 2 mps 602 mmHg 48%
12:00 +23°C° 0.1 mm 2 mps 602 mmHg 52%
13:00 +23°C° 0.1 mm 2 mps 601 mmHg 56%
14:00 +21°C° 0.1 mm 2 mps 600 mmHg 61%
15:00 +20°C° 0.5 mm 2 mps 600 mmHg 70%
16:00 +19°C° 0.5 mm 1 mps 600 mmHg 80%
17:00 +16°C° 0.5 mm 1 mps 600 mmHg 90%
18:00 +15°C° 0.7 mm 1 mps 600 mmHg 92%
19:00 +14°C° 0.7 mm 1 mps 600 mmHg 94%
20:00 +13°C° 0.7 mm 1 mps 600 mmHg 97%
21:00 +13°C° 0.1 mm 1 mps 599 mmHg 96%
22:00 +13°C° 0.1 mm 1 mps 599 mmHg 96%
23:00 +13°C° 0.1 mm 1 mps 599 mmHg 95%

Tomorrow, 21 June, Monday

Time Temperature Precipitation Wind Pressure Humidity
00:00 +13°C° 0 mm 1 mps 599 mmHg 95%
01:00 +12°C° 0 mm 1 mps 599 mmHg 95%
02:00 +12°C° 0 mm 1 mps 598 mmHg 96%
03:00 +12°C° 0 mm 1 mps 598 mmHg 96%
04:00 +11°C° 0 mm 1 mps 598 mmHg 96%
05:00 +11°C° 0 mm 1 mps 598 mmHg 96%
06:00 +13°C° 0 mm 1 mps 599 mmHg 89%
07:00 +15°C° 0 mm 1 mps 600 mmHg 83%
08:00 +16°C° 0 mm 0 mps 601 mmHg 76%
09:00 +20°C° 0.2 mm 1 mps 601 mmHg 68%
10:00 +21°C° 0.2 mm 1 mps 602 mmHg 60%
11:00 +23°C° 0.2 mm 1 mps 602 mmHg 53%
12:00 +22°C° 0.5 mm 1 mps 601 mmHg 62%
13:00 +20°C° 0.5 mm 1 mps 600 mmHg 72%
14:00 +19°C° 0.5 mm 1 mps 599 mmHg 82%
15:00 +18°C° 1 mm 1 mps 599 mmHg 86%
16:00 +16°C° 1 mm 1 mps 599 mmHg 89%
17:00 +15°C° 1 mm 1 mps 599 mmHg 92%
18:00 +14°C° 0.3 mm 1 mps 599 mmHg 93%
19:00 +14°C° 0.3 mm 1 mps 599 mmHg 94%
20:00 +13°C° 0.3 mm 1 mps 599 mmHg 95%
21:00 +13°C° 0 mm 1 mps 599 mmHg 95%
22:00 +12°C° 0 mm 1 mps 599 mmHg 95%
23:00 +12°C° 0 mm 1 mps 598 mmHg 95%

Day after tomorrow, 22 June, Tuesday

Time Temperature Precipitation Wind Pressure Humidity
00:00 +11°C° 0 mm 1 mps 598 mmHg 95%
01:00 +10°C° 0 mm 2 mps 598 mmHg 95%
02:00 +10°C° 0 mm 2 mps 597 mmHg 95%
03:00 +9°C° 0 mm 2 mps 597 mmHg 94%
04:00 +9°C° 0 mm 2 mps 597 mmHg 94%
05:00 +9°C° 0 mm 2 mps 598 mmHg 93%
06:00 +13°C° 0 mm 1 mps 599 mmHg 83%
07:00 +15°C° 0 mm 1 mps 600 mmHg 73%
08:00 +17°C° 0 mm 0 mps 601 mmHg 63%
09:00 +21°C° 0 mm 1 mps 601 mmHg 55%
10:00 +23°C° 0 mm 1 mps 601 mmHg 48%
11:00 +25°C° 0 mm 1 mps 602 mmHg 41%
12:00 +24°C° 0 mm 2 mps 601 mmHg 43%
13:00 +24°C° 0 mm 2 mps 600 mmHg 46%
14:00 +24°C° 0 mm 2 mps 600 mmHg 48%
15:00 +22°C° 0.3 mm 1 mps 599 mmHg 60%
16:00 +20°C° 0.3 mm 1 mps 599 mmHg 73%
17:00 +18°C° 0.3 mm 1 mps 598 mmHg 85%
18:00 +16°C° 0.6 mm 1 mps 599 mmHg 88%
19:00 +15°C° 0.6 mm 1 mps 599 mmHg 92%
20:00 +13°C° 0.6 mm 1 mps 599 mmHg 95%
21:00 +13°C° 0.1 mm 1 mps 599 mmHg 95%
22:00 +13°C° 0.1 mm 1 mps 598 mmHg 95%
23:00 +12°C° 0.1 mm 1 mps 598 mmHg 95%

23 June, Wednesday

Time Temperature Precipitation Wind Pressure Humidity
00:00 +12°C° 0 mm 2 mps 598 mmHg 95%
01:00 +12°C° 0 mm 2 mps 598 mmHg 94%
02:00 +12°C° 0 mm 2 mps 597 mmHg 94%
03:00 +10°C° 0 mm 2 mps 597 mmHg 94%
04:00 +10°C° 0 mm 2 mps 597 mmHg 95%
05:00 +9°C° 0 mm 2 mps 597 mmHg 95%
06:00 +13°C° 0 mm 1 mps 598 mmHg 85%
07:00 +15°C° 0 mm 1 mps 599 mmHg 76%
08:00 +19°C° 0 mm 1 mps 601 mmHg 66%
09:00 +21°C° 0 mm 1 mps 601 mmHg 56%
10:00 +23°C° 0 mm 1 mps 601 mmHg 47%
11:00 +25°C° 0 mm 1 mps 602 mmHg 37%
12:00 +25°C° 0 mm 2 mps 601 mmHg 40%
13:00 +24°C° 0 mm 2 mps 601 mmHg 42%
14:00 +24°C° 0 mm 2 mps 600 mmHg 45%
15:00 +21°C° 0.4 mm 2 mps 600 mmHg 58%
16:00 +20°C° 0.4 mm 1 mps 599 mmHg 72%
17:00 +16°C° 0.4 mm 0 mps 599 mmHg 85%
18:00 +16°C° 0.6 mm 1 mps 599 mmHg 88%
19:00 +15°C° 0.6 mm 1 mps 599 mmHg 90%
20:00 +14°C° 0.6 mm 1 mps 599 mmHg 93%
21:00 +13°C° 0 mm 1 mps 599 mmHg 93%
22:00 +12°C° 0 mm 1 mps 598 mmHg 93%
23:00 +12°C° 0 mm 2 mps 598 mmHg 93%

24 June, Thursday

Time Temperature Precipitation Wind Pressure Humidity
00:00 +10°C° 0 mm 2 mps 598 mmHg 93%
01:00 +10°C° 0 mm 2 mps 597 mmHg 94%
02:00 +9°C° 0 mm 2 mps 597 mmHg 94%
03:00 +9°C° 0 mm 2 mps 597 mmHg 94%
04:00 +9°C° 0 mm 2 mps 597 mmHg 93%
05:00 +9°C° 0 mm 2 mps 597 mmHg 93%
06:00 +13°C° 0 mm 1 mps 599 mmHg 82%
07:00 +15°C° 0 mm 1 mps 600 mmHg 71%
08:00 +19°C° 0 mm 1 mps 601 mmHg 60%
09:00 +21°C° 0 mm 1 mps 601 mmHg 52%
10:00 +23°C° 0 mm 1 mps 602 mmHg 44%
11:00 +25°C° 0 mm 1 mps 602 mmHg 36%
12:00 +25°C° 0 mm 2 mps 601 mmHg 37%
13:00 +25°C° 0 mm 2 mps 601 mmHg 38%
14:00 +25°C° 0 mm 2 mps 600 mmHg 38%
15:00 +23°C° 0 mm 1 mps 600 mmHg 49%
16:00 +21°C° 0 mm 1 mps 600 mmHg 60%
17:00 +19°C° 0 mm 1 mps 599 mmHg 71%
18:00 +18°C° 0.1 mm 1 mps 599 mmHg 76%
19:00 +15°C° 0.1 mm 1 mps 599 mmHg 82%
20:00 +14°C° 0.1 mm 1 mps 599 mmHg 88%
21:00 +13°C° 0 mm 1 mps 599 mmHg 88%
22:00 +13°C° 0 mm 2 mps 599 mmHg 88%
23:00 +12°C° 0 mm 2 mps 598 mmHg 87%

25 June, Friday

Time Temperature Precipitation Wind Pressure Humidity
00:00 +12°C° 0 mm 2 mps 598 mmHg 88%
01:00 +12°C° 0 mm 2 mps 597 mmHg 88%
02:00 +10°C° 0 mm 2 mps 597 mmHg 89%
03:00 +10°C° 0 mm 2 mps 597 mmHg 89%
04:00 +11°C° 0 mm 1 mps 597 mmHg 89%
05:00 +10°C° 0 mm 1 mps 597 mmHg 88%
06:00 +13°C° 0 mm 1 mps 598 mmHg 78%
07:00 +16°C° 0 mm 1 mps 600 mmHg 68%
08:00 +18°C° 0 mm 0 mps 601 mmHg 58%
09:00 +21°C° 0 mm 1 mps 601 mmHg 51%
10:00 +23°C° 0 mm 1 mps 602 mmHg 45%
11:00 +25°C° 0 mm 2 mps 602 mmHg 38%
12:00 +25°C° 0 mm 2 mps 601 mmHg 40%
13:00 +24°C° 0 mm 2 mps 601 mmHg 43%
14:00 +24°C° 0 mm 2 mps 600 mmHg 45%
15:00 +22°C° 0.3 mm 1 mps 600 mmHg 57%
16:00 +20°C° 0.3 mm 1 mps 599 mmHg 70%
17:00 +16°C° 0.3 mm 0 mps 599 mmHg 83%
18:00 +15°C° 0.2 mm 0 mps 599 mmHg 85%
19:00 +15°C° 0.2 mm 1 mps 599 mmHg 87%
20:00 +15°C° 0.2 mm 1 mps 599 mmHg 88%
21:00 +14°C° 0 mm 1 mps 599 mmHg 90%
22:00 +13°C° 0 mm 1 mps 598 mmHg 91%
23:00 +13°C° 0 mm 1 mps 598 mmHg 92%
Show more

We Need Your Consent

Meteoprog and our Service Providers may store and access personal data such as cookies, device identifiers or other similar technologies on your device and process such data to personalise content and ads, as well as provide social media features and to analyse the traffic.

  • Store and/or access information on your device

    Cookies, device identifiers or other information can be stored or accessed on your device for the purposes indicated above.

  • Personalised ads and content, ad and content measurement, audience insights, and products development

    Ads and content can be personalised based on a profile. More data can be added to better personalise ads and content. Ad and content performance can be measured. Insights about the audience who saw the ads and content can be derived. Such data can be used to develop or improve user’s experience, systems and software.

By clicking ‘I Agree’ you will allow the use of indicated cookies, device identifiers, web beacons or other similar technologies. Your settings can be changed in the browser on your device.

For certain purposes, legitimate interests may be relied on, rather than consent. You can read more about this in our Privacy and Cookie Policy.